Tracking 29065 objects as of 22-Jul-2024
HD Live streaming from Space Station
objects crossing your sky now

COSMOS 1275 DEB

Track COSMOS 1275 DEB now!
10-day predictions


NORAD ID: 12692
Int'l Code: 1981-053AL
Perigee: 750.9 km
Apogee: 850.9 km
Inclination: 82.9 °
Period: 100.7 minutes
Semi major axis: 7171 km
RCS: 0.5057 m2 (medium)
Launch date: June 4, 1981
Source: Commonwealth of Independent States (former USSR) (CIS)
Launch site: PLESETSK MISSILE AND SPACE COMPLEX (PKMTR)

Note: This is SATELLITE DEBRIS
Your satellite tracking list
Your tracking list is empty




NASA's NSSDC Master Catalog

Two Line Element Set (TLE):
1 12692U 81053AL  24203.66153306  .00003062  00000-0  11645-2 0  9998
2 12692  82.8961 243.8770 0069686 340.7695  19.0862 14.29390387218470
Source of the keplerian elements: AFSPC